This demonstration page uses our WeatherBlox Daily Observations layout. Learn more.

Hourly Observations for July 24, 2019

Temp ( °F °C ) Dew Point ( °F °C ) Humidity (%) Winds ( mph kmh ) Pressure ( in mb ) Visibility ( mi km ) Precip ( " mm )
12:15 am 00:15 Clear 63 17 59 15.1 89 89 SE 8 13 30.18 1022 10 16.09344 0 0
12:35 am 00:35 Clear 62 16.8 59 15 89 89 SE 6 9 30.18 1022 10 16.09344 0 0
12:55 am 00:55 Clear 62 16.6 59 14.8 89 89 ESE 7 11 30.18 1022 10 16.09344 0 0
1:15 am 01:15 Partly Cloudy 61 16.3 59 14.8 91 91 SE 6 9 30.18 1022 10 16.09344 0 0
1:35 am 01:35 Mostly Cloudy 61 16 58 14.7 92 92 SE 6 9 30.18 1022 10 16.09344 0 0
1:55 am 01:55 Partly Cloudy 61 15.9 58 14.5 91 91 SE 6 9 30.18 1022 10 16.09344 0 0
2:15 am 02:15 Clear 60 15.5 58 14.5 94 94 ESE 6 9 30.18 1022 10 16.09344 0 0
2:35 am 02:35 Clear 60 15.5 58 14.5 94 94 SE 3 6 30.18 1022 10 16.09344 0 0
2:55 am 02:55 Clear 60 15.5 58 14.4 93 93 SSE 3 6 30.18 1022 10 16.09344 0 0
3:15 am 03:15 Clear 60 15.6 58 14.2 91 91 SSE 6 9 30.18 1022 10 16.09344 0 0
3:35 am 03:35 Partly Cloudy 60 15.5 58 14.2 92 92 SE 7 11 30.18 1022 10 16.09344 0 0
3:55 am 03:55 Mostly Cloudy 60 15.5 57 14.1 91 91 SE 6 9 30.18 1022 10 16.09344 0 0
4:15 am 04:15 Partly Cloudy 59 15.2 57 14 93 93 SE 6 9 30.18 1022 10 16.09344 0 0
4:35 am 04:35 Clear 59 15.1 57 14 93 93 SSE 7 11 30.15 1021 10 16.09344 0 0
4:55 am 04:55 Clear 59 15.2 57 13.8 91 91 SSE 6 9 30.15 1021 10 16.09344 0 0
5:15 am 05:15 Mostly Cloudy 59 15 57 13.7 92 92 SSE 3 6 30.15 1021 10 16.09344 0 0
5:35 am 05:35 Mostly Cloudy 59 15 57 13.8 93 93 SSE 6 9 30.18 1022 10 16.09344 0 0
5:55 am 05:55 Mostly Cloudy 58 14.7 57 13.7 94 94 SSE 5 7 30.18 1022 10 16.09344 0 0
6:15 am 06:15 Cloudy 59 15 57 13.8 93 93 SSE 5 7 30.18 1022 10 16.09344 0 0
6:35 am 06:35 Mostly Cloudy 59 15.1 57 13.7 91 91 SE 5 7 30.18 1022 10 16.09344 0 0
6:55 am 06:55 Partly Cloudy 59 15 57 13.9 93 93 SE 6 9 30.21 1023 10 16.09344 0 0
7:15 am 07:15 Partly Cloudy 60 15.4 57 14.1 92 92 SSE 6 9 30.18 1022 10 16.09344 0 0
7:30 am 07:30 Sunny 60 15.6 58 14.2 91 91 SSE 6 9 30.18 1022 10 16.09344 0 0
7:55 am 07:55 Sunny 62 16.5 58 14.5 88 88 SSE 7 11 30.18 1022 10 16.09344 0 0
8:15 am 08:15 Sunny 63 17.2 58 14.6 85 85 SSE 8 13 30.18 1022 10 16.09344 0 0
8:35 am 08:35 Partly Cloudy 65 18.3 58 14.7 80 80 SSE 9 15 30.15 1021 10 16.09344 0 0
8:55 am 08:55 Partly Cloudy 66 19.1 59 15 77 77 SSE 13 20 30.15 1021 10 16.09344 0 0
9:15 am 09:15 Partly Cloudy 68 20 59 15 73 73 SSE 12 19 30.15 1021 10 16.09344 0 0
9:35 am 09:35 Partly Cloudy 69 20.7 59 15 70 70 SSE 13 20 30.15 1021 10 16.09344 0 0
9:55 am 09:55 Partly Cloudy 69 20.7 59 15.2 71 71 S 14 22 30.15 1021 10 16.09344 0 0
10:15 am 10:15 Sunny 70 21.1 60 15.5 71 71 SSE 13 20 30.12 1020 10 16.09344 0 0
10:35 am 10:35 Sunny 72 22 58 14.6 63 63 SSE 15 24 30.09 1019 10 16.09344 0 0
10:55 am 10:55 Partly Cloudy 73 22.5 58 14.4 60 60 SSE 14 22 30.09 1019 10 16.09344 0 0
11:15 am 11:15 Sunny 73 23 59 14.8 60 60 SSE 14 22 30.06 1018 10 16.09344 0 0
11:35 am 11:35 Sunny 75 23.9 59 15 58 58 S 13 20 30.06 1018 10 16.09344 0 0
11:55 am 11:55 Sunny 75 24 60 15.4 59 59 S 12 19 30.06 1018 10 16.09344 0 0
12:15 pm 12:15 Sunny 76 24.6 60 15.6 57 57 SSE 14 22 30.06 1018 10 16.09344 0 0
12:35 pm 12:35 Sunny 77 25 60 15.7 56 56 SSE 12 19 30.03 1017 10 16.09344 0 0
12:55 pm 12:55 Sunny 78 25.3 60 15.4 54 54 S 12 19 30 1016 10 16.09344 0 0
1:15 pm 13:15 Sunny 78 25.8 60 15.8 54 54 SSE 14 22 30 1016 10 16.09344 0 0
1:35 pm 13:35 Sunny 80 26.5 61 15.9 52 52 SSE 14 22 30 1016 10 16.09344 0 0
1:55 pm 13:55 Sunny 80 26.8 61 15.9 51 51 SSE 15 24 30 1016 10 16.09344 0 0
2:15 pm 14:15 Sunny 81 27.1 61 16.2 51 51 SSE 14 22 30 1016 10 16.09344 0 0
2:35 pm 14:35 Sunny 82 27.5 61 16.2 50 50 SSE 10 17 30 1016 10 16.09344 0 0
2:55 pm 14:55 Sunny 82 27.6 61 16 49 49 SSE 14 22 30 1016 10 16.09344 0 0
3:15 pm 15:15 Sunny 82 28 61 16 48 48 SSE 13 20 30 1016 7 11.265408 0 0
3:35 pm 15:35 Sunny 83 28.4 61 16.1 47 47 SSE 14 22 29.97 1015 10 16.09344 0 0
3:55 pm 15:55 Sunny 84 28.7 61 16.2 47 47 S 14 22 29.94 1014 10 16.09344 0 0
4:15 pm 16:15 Sunny 84 28.7 59 15.2 44 44 S 10 17 29.94 1014 10 16.09344 0 0
4:35 pm 16:35 Sunny 84 28.9 60 15.3 44 44 SSE 14 22 29.94 1014 10 16.09344 0 0
4:55 pm 16:55 Sunny 84 28.8 60 15.6 45 45 SSE 13 20 29.94 1014 10 16.09344 0 0
5:15 pm 17:15 Sunny 84 28.7 61 15.9 46 46 SSE 13 20 29.94 1014 10 16.09344 0 0
5:35 pm 17:35 Sunny 83 28.6 62 16.4 48 48 SSE 15 24 29.91 1013 10 16.09344 0 0
5:55 pm 17:55 Sunny 83 28.6 62 16.5 48 48 SSE 13 20 29.91 1013 10 16.09344 0 0
6:15 pm 18:15 Sunny 82 28 61 16.2 49 49 SSE 13 20 29.91 1013 10 16.09344 0 0
6:35 pm 18:35 Sunny 82 28 61 16.2 49 49 SE 12 19 29.91 1013 10 16.09344 0 0
6:55 pm 18:55 Sunny 82 27.8 61 16.2 49 49 SE 12 19 29.91 1013 10 16.09344 0 0
7:15 pm 19:15 Sunny 82 27.7 62 16.5 51 51 SE 13 20 29.91 1013 10 16.09344 0 0
7:35 pm 19:35 Sunny 81 27 61 16.3 52 52 SE 12 19 29.94 1014 10 16.09344 0 0
7:55 pm 19:55 Sunny 79 26.3 61 16.1 54 54 SE 12 19 29.91 1013 10 16.09344 0 0
8:15 pm 20:15 Sunny 79 25.9 61 16 54 54 SE 10 17 29.94 1014 10 16.09344 0 0
8:35 pm 20:35 Sunny 76 24.6 61 16.1 59 59 SE 9 15 29.91 1013 10 16.09344 0 0
8:55 pm 20:55 Sunny 74 23.5 61 16.2 64 64 SE 10 17 29.91 1013 10 16.09344 0 0
9:15 pm 21:15 Clear 73 23 61 16 65 65 SSE 9 15 29.94 1014 10 16.09344 0 0
9:35 pm 21:35 Clear 72 22.2 60 15.8 67 67 SSE 7 11 29.94 1014 10 16.09344 0 0
9:55 pm 21:55 Clear 71 21.5 60 15.7 70 70 SSE 8 13 29.97 1015 10 16.09344 0 0
10:15 pm 22:15 Clear 71 21.5 60 15.3 68 68 SSE 7 11 29.97 1015 10 16.09344 0 0
10:35 pm 22:35 Clear 70 21 60 15.3 70 70 SSE 8 13 29.97 1015 10 16.09344 0 0
10:55 pm 22:55 Clear 69 20.8 60 15.3 71 71 SSE 8 13 29.97 1015 10 16.09344 0 0
11:15 pm 23:15 Clear 68 20.2 60 15.5 75 75 SSE 7 11 29.97 1015 10 16.09344 0 0
11:35 pm 23:35 Clear 68 20.2 60 15.4 74 74 SSE 6 9 29.97 1015 10 16.09344 0 0
11:55 pm 23:55 Clear 69 20.3 60 15.4 74 74 SSE 9 15 29.97 1015 10 16.09344 0 0

Powered by AerisWeather